CYGFM01

Last updated on Thu Jul 03 2025 00:02:22 GMT+0000 (Coordinated Universal Time)

1 41887U 16078D 25182.92158635 .00010437 00000+0 24246-3 0 9992 2 41887 34.9450 34.4551 0008089 74.8397 285.3217 15.41490347474483
UTC large
Height (km)
Speed (km/s)
/
Latitude / Longitude
Inclination (degrees)
Orbital Period (minutes)
Azimuth
Elevation
Range (km)
Doppler Factor

Next 0 passes for location: London (51.5072 / 0.1276)

Sorry there are no passes over London.